Back to catalog

LINUSS1

AliveScienceGEO
NORAD 55246·PAYLOAD·🇺🇸 United States

Launched Nov 1, 2022 from Cape Canaveral Space Force Station

Loading…

TLE

FreshSource: Space-Track

Epoch: Sep 14, 2026, 13:18 UTC

1 55246U 22144G   26257.55423508  .00000005  00000-0  00000-0 0  9994
2 55246   5.5957  63.4568 0008560 301.4426  36.9374  0.99055001 12549

Track LINUSS1 in real time with AllMySat

Download on the App Store